カタログに戻る

SPACENET 2

運用中通信GEO
NORAD 15385·PAYLOAD·🇺🇸 United States

打ち上げ Nov 10, 1984 から Guiana Space Centre

Loading…

TLE

最新Source: Space-Track

元期: Sep 9, 2026, 21:07 UTC

1 15385U 84114A   26252.88041073  .00000093  00000-0  00000+0 0  9999
2 15385  14.6455 351.3627 0006311 100.3308 263.3637  0.99754861127821

AllMySatでSPACENET 2をリアルタイム追跡

Download on the App Store